Voltar ao catálogo

CZ-6A DEB

AtivoPO
NORAD 60675·DEBRIS·🇨🇳 China

Lançado Aug 6, 2024 de Taiyuan Satellite Launch Center

Loading…

Próximas Passagens (próximas 24 horas)

TLE

AtualizadoSource: Space-Track

Época: Sep 14, 2026, 23:11 UTC

1 60675U 24140CC  26257.96611539  .00000125  00000-0  60742-4 0  9998
2 60675  89.0084 267.0278 0081078 284.5276  74.6925 14.10899435108124

Acompanhe CZ-6A DEB em tempo real com AllMySat

Download on the App Store